Sterling, IL

9:47 PM CDT on September 18, 2019 (GMT -0500)
Whiteside County-Bittorf

Weather History for KSQI - July, 2019

Change the Weather History Date:

Tuesday, July 30, 2019

  Actual Average Record
Temperature  
Mean Temperature 72 °F -  
Max Temperature 82 °F 81 °F 98 °F (1999)
Min Temperature 61 °F 60 °F 55 °F (1997)
Cooling Degree Days 6    
Growing Degree Days 22 (Base 50)    
Moisture  
Dew Point 59 °F    
Average Humidity 68    
Maximum Humidity 93    
Minimum Humidity 43    
Precipitation  
Precipitation 0.00 in - - ()
Sea Level Pressure  
Sea Level Pressure 29.65 in    
Wind  
Wind Speed 6 mph (NNW)    
Max Wind Speed 12 mph    
Max Gust Speed -    
Visibility 10 miles    
Events      
Averages and records for this station are not official NWS values.
T = Trace of Precipitation, MM = Missing Value Source: NWS Daily Summary

Daily Weather History Graph

Daily Weather History Graph

Search for Another Location

Airport or City:

Astronomy

Jul. 30, 2019 Rise Set
Actual Time 5:50 AM CDT 8:19 PM CDT
Civil Twilight 5:19 AM CDT 8:50 PM CDT
Nautical Twilight 4:39 AM CDT 9:29 PM CDT
Astronomical Twilight 3:55 AM CDT 10:13 PM CDT
Moon 3:57 AM CDT (7/30) 7:24 PM CDT (7/30)
Length of Visible Light 15h 31m
Length of Day
14h 28m
Waning Crescent, 3% of the Moon is Illuminated
Jul 30
Waning Crescent
Jul 31
New
Aug 7
First Quarter
Aug 15
Full
Aug 23
Last Quarter

Hourly Weather History & Observations

Time (CDT) Temp. Heat Index Dew Point Humidity Pressure Visibility Wind Dir Wind Speed Gust Speed Precip Events Conditions
12:56 AM 66.9 °F - 63.0 °F 87% 29.56 in 10.0 mi WSW 4.6 mph - N/A   Clear
1:56 AM 64.9 °F - 62.1 °F 90% 29.56 in 10.0 mi West 5.8 mph - N/A   Clear
2:56 AM 66.0 °F - 63.0 °F 90% 29.57 in 10.0 mi Variable 4.6 mph - N/A   Clear
3:56 AM 66.0 °F - 63.0 °F 90% 29.57 in 10.0 mi NNW 5.8 mph - N/A   Clear
4:56 AM 64.9 °F - 62.1 °F 90% 29.59 in 10.0 mi NNW 5.8 mph - N/A   Clear
5:56 AM 64.0 °F - 62.1 °F 93% 29.61 in 10.0 mi North 4.6 mph - N/A   Clear
6:56 AM 66.0 °F - 62.1 °F 87% 29.63 in 10.0 mi North 5.8 mph - N/A   Clear
7:56 AM 69.1 °F - 62.1 °F 78% 29.65 in 10.0 mi North 10.4 mph - N/A   Clear
8:56 AM 73.0 °F - 62.1 °F 68% 29.67 in 10.0 mi North 8.1 mph - N/A   Clear
9:56 AM 75.9 °F - 61.0 °F 60% 29.67 in 10.0 mi North 6.9 mph - N/A   Clear
10:56 AM 78.1 °F - 57.9 °F 50% 29.68 in 10.0 mi NNE 9.2 mph - N/A   Clear
11:56 AM 80.1 °F 80.7 °F 59.0 °F 48% 29.68 in 10.0 mi North 10.4 mph - N/A   Mostly Cloudy
12:56 PM 77.0 °F - 57.0 °F 50% 29.68 in 10.0 mi NW 6.9 mph - N/A   Mostly Cloudy
1:56 PM 79.0 °F - 57.0 °F 47% 29.68 in 10.0 mi WNW 9.2 mph - N/A   Scattered Clouds
2:56 PM 80.1 °F 80.4 °F 57.0 °F 45% 29.68 in 10.0 mi NNW 11.5 mph - N/A   Scattered Clouds
3:56 PM 81.0 °F 81.0 °F 57.0 °F 44% 29.66 in 10.0 mi NNW 10.4 mph - N/A   Clear
4:56 PM 80.1 °F 80.2 °F 55.9 °F 43% 29.66 in 10.0 mi North 9.2 mph - N/A   Clear
5:56 PM 79.0 °F - 55.9 °F 45% 29.67 in 10.0 mi North 6.9 mph - N/A   Clear
6:56 PM 77.0 °F - 55.9 °F 48% 29.65 in 10.0 mi NNE 6.9 mph - N/A   Clear
7:56 PM 73.0 °F - 55.9 °F 55% 29.67 in 10.0 mi North 4.6 mph - N/A   Clear
8:56 PM 68.0 °F - 55.9 °F 65% 29.69 in 10.0 mi North 4.6 mph - N/A   Clear
9:56 PM 64.9 °F - 57.0 °F 75% 29.71 in 9.0 mi NNE 3.5 mph - N/A   Clear
10:56 PM 62.1 °F - 57.9 °F 86% 29.72 in 10.0 mi Calm Calm - N/A   Clear
11:56 PM 61.0 °F - 57.0 °F 87% 29.73 in 10.0 mi Calm Calm - N/A   Clear